Regional Weather Roundup
Issued by NWS Charleston, SC

Current Version | Previous Version | Text Only | Print | Product List | Glossary On
Versions: 1 2 3 4 5 6 7 8 9 10 11 12 13 14 15 16 17 18 19 20 21 22 23 24 25 26 27 28 29 30 31 32 33 34 35 36 37 38 39 40 41 42 43 44 45 46 47 48 49 50
000
ASUS42 KCHS 041726
RWRCHS

Regional Weather Roundup
National Weather Service Charleston SC
1200 PM EST MON MAR 04 2024

NOTE: "fair" indicates few or no clouds below 12,000 feet with no
significant weather and/or obstructions to visibility.

Not all stations are quality controlled. Use data with caution,
especially dewpoint observations.

SCZ027-030-031-034>040-042>050-041800-
...Southeast South Carolina...

CITY           SKY/WX    TMP DP  RH WIND       PRES   REMARKS
N Charleston   MOSUNNY   76  58  53 NE6       30.16F
Waterfront Prk   N/A     67  60  78 N7        30.02F
Mount Pleasant SUNNY     73  61  64 VRB5      30.14F
Johns Island   SUNNY     77  61  57 VRB7      30.15F
Pinopolis        N/A     61  61 100 W6          N/A
Moncks Corner  SUNNY     68  59  73 NW5       30.16F
Summerville    MOSUNNY   70  61  73 VRB5G12   30.15F
Beaufort MCAS  MOSUNNY   71  61  70 N8        30.18F
Beaufort Arpt  PTSUNNY   70  59  68 N8        30.17S
Hilton Head Is PTSUNNY   66  61  82 N8        30.19S
Walterboro     CLOUDY    66  59  77 N7        30.19F
Allendale      MOSUNNY   72  59  64 VRB7G13   30.16F

...Southern Midlands and Pee Dee...

CITY           SKY/WX    TMP DP  RH WIND       PRES   REMARKS
Georgetown     MOSUNNY   72  57  60 N10       30.15F
Kingstree      MOSUNNY   72  52  49 N8        30.17F
Orangeburg     MOSUNNY   70  60  70 VRB3      30.19F
Barnwell       MOSUNNY   72  55  56 NE7       30.18F
Aiken          SUNNY     70  56  61 NE8       30.20F
Manning        PTSUNNY   70  55  60 N8        30.17F
Columbia       PTSUNNY   63  59  87 NE6       30.20S
Sumter         MOSUNNY   70  57  63 E6        30.17F
Florence       MOSUNNY   72  58  61 MISG      30.18F
Myrtle Beach   PTSUNNY   71  57  61 N13G20    30.15F
N Myrtle Beach MOSUNNY   73  56  54 N9G18     30.14F

$$

GAZ063-065-086>088-099>101-113>116-118-119-134>141-150-041800-
...Southeast Georgia...

CITY           SKY/WX    TMP DP  RH WIND       PRES   REMARKS
Savannah Arpt  CLOUDY    67  59  75 N6        30.19S
Hunter AAF     CLOUDY    66  61  82 N5        30.15S
Fort Stewart   PTSUNNY   67  61  79 NE5       30.15F
Statesboro     PTSUNNY   72  57  60 SE5       30.18F
Sylvania       MOSUNNY   72  59  63 E5        30.18F
Claxton        MOSUNNY   75  58  55 E6        30.17F
Millen         SUNNY     71  56  59 NE6       30.18F
Metter         MOSUNNY   72  58  60 NE5       30.17F
Reidsville     MOSUNNY   74  58  57 CALM      30.17F

...CSRA, Central and far Southeast Georgia...

CITY           SKY/WX    TMP DP  RH WIND       PRES   REMARKS
Thomson        PTSUNNY   64  56  74 CALM      30.20F
Augusta-Bush   SUNNY     70  56  61 NE8       30.17F
Augusta-Daniel SUNNY     69  56  62 E6        30.19F
Swainsboro     SUNNY     72  55  56 E6        30.19F
Vidalia        PTSUNNY   73  61  64 CALM      30.17F
Eastman        CLOUDY    68  59  73 E5        30.21F
Hazlehurst     CLOUDY    69  59  70 CALM      30.17S
Alma           PTSUNNY   73  61  65 S5        30.17F
Waycross       CLOUDY    67  66  96 CALM      30.18F
Jesup          CLOUDY    68  63  83 CALM      30.20F
Baxley         CLOUDY    70  59  68 CALM      30.17F
Brunswick      CLOUDY    67  62  85 NE5       30.18S
Saint Simons   CLOUDY    66  64  94 NE7       30.17S

$$

SCZ027-028-034-036>038-045-046-048>050-GAZ119-141-041800-
...Lake and Supplemental Coastal Observations...

STATION/POSITION TIME  TEMP    WIND        PRES    WAVE   SWELL
                       AIR SEA DIR/SP/G            HT/PER HT/PER/DIR
                 (UTC) (F)     (DEG/KT/KT) (MB)    (FT/S) (FT/S/D)
Winyah Bay       1645   70      20/  9     1021.0F
Lake Murray      1650   58     320/  4/  4   N/A
Chrlstn Harbor   1642   67 58   10/  8/  9 1021.9F
ACE Basin NERRS  1645   70     350/  3     1023.0S
Fort Pulaski     1642   62 58   70/  8/ 11 1022.4R
Sapelo Island    1700   67     360/  8     1022.0

$$

ANZ835-935-AMZ111-154-330-350-352-354-370-450-454-472-041800-
...C-MAN and Buoy Observations...

STATION/POSITION TIME  TEMP    WIND        PRES    WAVE   SWELL
                       AIR SEA DIR/SP/G            HT/PER HT/PER/DIR
                 (UTC) (F)     (DEG/KT/KT) (MB)    (FT/S) (FT/S/D)
Buoy 41004       1700   61 68  360/ 12/ 14 1021.4
Buoy 41008       1700   58 59   30/ 10/ 12 1022.2
Folly Beach CMAN NOT AVBL
Chas Pilot Buoy  NOT AVBL
Chas Pilot Wave  1602                        N/A     3/ 9
Capers Nearshore 1608   61      50/  4/  8 1021.1F
Capers NS Wave   1622                        N/A     2/ 9
Fripp Nearshore  1608   59      30/  6/  6 1023.4S
Fripp NS Wave    1645      59                N/A     2/ 9


STATION/POSITION TIME  TEMP    WIND        PRES    WAVE   SWELL
                       AIR SEA DIR/SP/G            HT/PER HT/PER/DIR
                 (UTC) (F)     (DEG/KT/KT) (MB)    (FT/S) (FT/S/D)
5E St. Marys GA  1700   60 60                N/A     3/10   2/100/10
Frying Pan Buoy  1700   58 59  340/  8/ 12 1020.1
Buoy 41025       1700      65  120/ 23/ 33 1017.6
Cape Lookout NC  1700   62     360/ 13/ 17 1017.7F
Buoy 41002       1700   70 71  180/ 17/ 21 1018.3
Buoy 41010       NOT AVBL
St Augustine FL  1700   60 62  350/ 12/ 13 1021.0F


$$



USA.gov is the U.S. government's official web portal to all federal, state and local government web resources and services.